User: anonymous   Login
Location: Unspecified
(0.0000°N, 0.0000°E)
Time: 07:47:49
(UTC+00:00)
Language:

STARLINK-30557 - Orbit

View from above orbital plane
View from above orbital plane
View from above satellite
View from above satellite

Ground track
Ground track

The orbit is defined by the following mean orbital elements,

1 58087U          26145.32075663 +.00000000 +00000-0 -63445-4 0 00008
2 58087  43.0025   8.6797 0001065 270.5455  89.5275 15.27588490    06
Epoch (UTC): 25 May 2026 07:41:53
Eccentricity: 0.0001065
inclination: 43.0025°
perigee height: 482 km
apogee height: 484 km
right ascension of ascending node: 8.6797°
argument of perigee: 270.5455°
revolutions per day: 15.27588490
mean anomaly at epoch: 89.5275°

The dashed part of the orbit path shows where the satellite is in the earth's shadow,  

DLR